• In Uzbekistan
  • List of Countries
  • For 7 days
  • Water Temperature
  • Satellite Maps
  • Weather Map
  • Weather Widgets
  • user-avatar
    Login

    Hourly Weather Sevan

    Today, 19 January, Thursday

    Time Temperature Precipitation Wind Pressure Humidity
    00:00 -7°C° 0 mm 1 mps 639 mmHg 90%
    01:00 -7°C° 0.1 mm 1 mps 639 mmHg 90%
    02:00 -7°C° 0.1 mm 1 mps 639 mmHg 91%
    03:00 -7°C° 0 mm 1 mps 639 mmHg 92%
    04:00 -7°C° 0.1 mm 1 mps 639 mmHg 93%
    05:00 -7°C° 0.1 mm 1 mps 639 mmHg 93%
    06:00 -7°C° 0.1 mm 1 mps 639 mmHg 93%
    07:00 -6°C° 0.1 mm 1 mps 640 mmHg 92%
    08:00 -3°C° 0.1 mm 1 mps 640 mmHg 91%
    09:00 -1°C° 0 mm 1 mps 642 mmHg 90%
    10:00 -1°C° 0.2 mm 1 mps 642 mmHg 90%
    11:00 0°C° 0.2 mm 1 mps 642 mmHg 89%
    12:00 +1°C° 0.2 mm 1 mps 642 mmHg 88%
    13:00 +1°C° 0.3 mm 1 mps 641 mmHg 89%
    14:00 +1°C° 0.3 mm 1 mps 641 mmHg 90%
    15:00 +1°C° 0.3 mm 1 mps 641 mmHg 90%
    16:00 -2°C° 0.2 mm 0 mps 641 mmHg 92%
    17:00 -4°C° 0.2 mm 0 mps 640 mmHg 94%
    18:00 -5°C° 0.2 mm 0 mps 640 mmHg 96%
    19:00 -5°C° 0.2 mm 0 mps 640 mmHg 95%
    20:00 -5°C° 0.2 mm 0 mps 640 mmHg 94%
    21:00 -6°C° 0.2 mm 0 mps 640 mmHg 93%
    22:00 -6°C° 0.2 mm 0 mps 640 mmHg 93%
    23:00 -6°C° 0.2 mm 0 mps 640 mmHg 93%

    Tomorrow, 20 January, Friday

    Time Temperature Precipitation Wind Pressure Humidity
    00:00 -6°C° 0.2 mm 0 mps 640 mmHg 92%
    01:00 -7°C° 0.1 mm 0 mps 640 mmHg 92%
    02:00 -7°C° 0.1 mm 0 mps 640 mmHg 92%
    03:00 -8°C° 0.1 mm 0 mps 640 mmHg 92%
    04:00 -8°C° 0.1 mm 0 mps 640 mmHg 93%
    05:00 -9°C° 0.1 mm 0 mps 639 mmHg 93%
    06:00 -10°C° 0.1 mm 0 mps 639 mmHg 93%
    07:00 -8°C° 0 mm 0 mps 640 mmHg 92%
    08:00 -6°C° 0 mm 0 mps 641 mmHg 90%
    09:00 -4°C° 0 mm 0 mps 642 mmHg 89%
    10:00 -3°C° 0.1 mm 0 mps 642 mmHg 88%
    11:00 -2°C° 0.1 mm 0 mps 642 mmHg 87%
    12:00 -1°C° 0.1 mm 0 mps 642 mmHg 86%
    13:00 0°C° 0.2 mm 1 mps 642 mmHg 87%
    14:00 0°C° 0.2 mm 1 mps 642 mmHg 88%
    15:00 0°C° 0.2 mm 1 mps 641 mmHg 89%
    16:00 -3°C° 0.1 mm 0 mps 641 mmHg 91%
    17:00 -5°C° 0.1 mm 0 mps 640 mmHg 94%
    18:00 -6°C° 0.1 mm 0 mps 640 mmHg 96%
    19:00 -7°C° 0.1 mm 0 mps 640 mmHg 95%
    20:00 -8°C° 0.1 mm 0 mps 640 mmHg 94%
    21:00 -8°C° 0.1 mm 0 mps 639 mmHg 94%
    22:00 -9°C° 0.1 mm 0 mps 639 mmHg 93%
    23:00 -10°C° 0.1 mm 0 mps 639 mmHg 93%

    Day after tomorrow, 21 January, Saturday

    Time Temperature Precipitation Wind Pressure Humidity
    00:00 -11°C° 0.1 mm 0 mps 639 mmHg 93%
    01:00 -11°C° 0 mm 0 mps 638 mmHg 93%
    02:00 -12°C° 0 mm 0 mps 638 mmHg 93%
    03:00 -13°C° 0 mm 0 mps 638 mmHg 93%
    04:00 -14°C° 0 mm 0 mps 637 mmHg 93%
    05:00 -14°C° 0 mm 0 mps 637 mmHg 93%
    06:00 -15°C° 0 mm 0 mps 637 mmHg 93%
    07:00 -12°C° 0 mm 0 mps 638 mmHg 91%
    08:00 -9°C° 0 mm 0 mps 640 mmHg 89%
    09:00 -6°C° 0 mm 0 mps 641 mmHg 87%
    10:00 -5°C° 0 mm 0 mps 641 mmHg 86%
    11:00 -2°C° 0 mm 1 mps 641 mmHg 85%
    12:00 -1°C° 0 mm 1 mps 641 mmHg 84%
    13:00 -1°C° 0 mm 1 mps 641 mmHg 85%
    14:00 -1°C° 0 mm 1 mps 640 mmHg 85%
    15:00 -1°C° 0 mm 1 mps 640 mmHg 86%
    16:00 -4°C° 0 mm 1 mps 639 mmHg 88%
    17:00 -9°C° 0 mm 0 mps 638 mmHg 91%
    18:00 -12°C° 0 mm 0 mps 637 mmHg 93%
    19:00 -12°C° 0 mm 0 mps 637 mmHg 92%
    20:00 -13°C° 0 mm 0 mps 636 mmHg 91%
    21:00 -13°C° 0 mm 0 mps 636 mmHg 91%
    22:00 -14°C° 0 mm 1 mps 636 mmHg 90%
    23:00 -14°C° 0 mm 1 mps 636 mmHg 89%

    22 January, Sunday

    Time Temperature Precipitation Wind Pressure Humidity
    00:00 -14°C° 0 mm 1 mps 636 mmHg 89%
    01:00 -14°C° 0 mm 1 mps 637 mmHg 89%
    02:00 -13°C° 0 mm 1 mps 637 mmHg 89%
    03:00 -13°C° 0 mm 1 mps 637 mmHg 89%
    04:00 -13°C° 0 mm 1 mps 637 mmHg 89%
    05:00 -14°C° 0 mm 1 mps 637 mmHg 89%
    06:00 -14°C° 0 mm 1 mps 636 mmHg 90%
    07:00 -11°C° 0 mm 1 mps 638 mmHg 89%
    08:00 -9°C° 0 mm 1 mps 639 mmHg 88%
    09:00 -6°C° 0 mm 1 mps 640 mmHg 87%
    10:00 -4°C° 0 mm 1 mps 640 mmHg 85%
    11:00 -5°C° 0 mm 2 mps 640 mmHg 84%
    12:00 -4°C° 0 mm 2 mps 640 mmHg 82%
    13:00 -4°C° 0 mm 2 mps 640 mmHg 82%
    14:00 -4°C° 0 mm 2 mps 639 mmHg 83%
    15:00 -4°C° 0 mm 2 mps 639 mmHg 83%
    16:00 -7°C° 0 mm 2 mps 638 mmHg 85%
    17:00 -8°C° 0 mm 1 mps 638 mmHg 87%
    18:00 -11°C° 0 mm 1 mps 637 mmHg 90%
    19:00 -11°C° 0 mm 1 mps 638 mmHg 89%
    20:00 -11°C° 0 mm 1 mps 638 mmHg 89%
    21:00 -11°C° 0 mm 1 mps 639 mmHg 88%
    22:00 -10°C° 0.1 mm 1 mps 640 mmHg 88%
    23:00 -8°C° 0.1 mm 1 mps 641 mmHg 88%

    23 January, Monday

    Time Temperature Precipitation Wind Pressure Humidity
    00:00 -7°C° 0.1 mm 1 mps 642 mmHg 87%
    01:00 -8°C° 0.1 mm 1 mps 642 mmHg 88%
    02:00 -9°C° 0.1 mm 1 mps 642 mmHg 88%
    03:00 -10°C° 0.1 mm 1 mps 642 mmHg 88%
    04:00 -11°C° 0 mm 1 mps 643 mmHg 89%
    05:00 -11°C° 0 mm 1 mps 643 mmHg 89%
    06:00 -12°C° 0 mm 1 mps 644 mmHg 89%
    07:00 -11°C° 0 mm 1 mps 645 mmHg 88%
    08:00 -10°C° 0 mm 1 mps 646 mmHg 86%
    09:00 -9°C° 0 mm 1 mps 647 mmHg 85%
    10:00 -7°C° 0 mm 1 mps 647 mmHg 82%
    11:00 -6°C° 0 mm 1 mps 647 mmHg 80%
    12:00 -3°C° 0 mm 1 mps 648 mmHg 77%
    13:00 -3°C° 0 mm 1 mps 648 mmHg 78%
    14:00 -3°C° 0 mm 1 mps 647 mmHg 79%
    15:00 -3°C° 0 mm 1 mps 647 mmHg 79%
    16:00 -8°C° 0 mm 1 mps 646 mmHg 82%
    17:00 -11°C° 0 mm 1 mps 645 mmHg 84%
    18:00 -15°C° 0 mm 1 mps 643 mmHg 87%
    19:00 -15°C° 0 mm 1 mps 644 mmHg 87%
    20:00 -15°C° 0 mm 1 mps 644 mmHg 86%
    21:00 -15°C° 0 mm 1 mps 644 mmHg 86%
    22:00 -15°C° 0 mm 1 mps 644 mmHg 86%
    23:00 -16°C° 0 mm 1 mps 643 mmHg 85%

    24 January, Tuesday

    Time Temperature Precipitation Wind Pressure Humidity
    00:00 -16°C° 0 mm 1 mps 643 mmHg 85%
    01:00 -17°C° 0 mm 1 mps 643 mmHg 85%
    02:00 -17°C° 0 mm 1 mps 643 mmHg 85%
    03:00 -17°C° 0 mm 1 mps 642 mmHg 85%
    04:00 -17°C° 0 mm 1 mps 642 mmHg 85%
    05:00 -17°C° 0 mm 1 mps 642 mmHg 85%
    06:00 -17°C° 0 mm 1 mps 642 mmHg 85%
    07:00 -14°C° 0 mm 1 mps 643 mmHg 83%
    08:00 -10°C° 0 mm 1 mps 644 mmHg 82%
    09:00 -7°C° 0 mm 1 mps 646 mmHg 80%
    10:00 -6°C° 0 mm 1 mps 646 mmHg 79%
    11:00 -3°C° 0 mm 1 mps 646 mmHg 78%
    12:00 -3°C° 0 mm 2 mps 646 mmHg 77%
    13:00 -3°C° 0 mm 2 mps 645 mmHg 78%
    14:00 -3°C° 0 mm 2 mps 644 mmHg 79%
    15:00 -1°C° 0 mm 1 mps 644 mmHg 80%
    16:00 -6°C° 0 mm 1 mps 642 mmHg 83%
    17:00 -10°C° 0 mm 1 mps 641 mmHg 85%
    18:00 -13°C° 0 mm 1 mps 640 mmHg 88%
    19:00 -13°C° 0 mm 1 mps 640 mmHg 87%
    20:00 -13°C° 0 mm 1 mps 640 mmHg 86%
    21:00 -13°C° 0 mm 1 mps 640 mmHg 85%
    22:00 -13°C° 0 mm 1 mps 640 mmHg 84%
    23:00 -13°C° 0 mm 1 mps 639 mmHg 84%
    Show more